GSAT-10 (GAGAN/PRN 128)

Last updated on May 21, 2019, 3:11 a.m. UTC

1 38779U 12051B   19140.82908257 -.00000175  00000-0  00000+0 0  9992
2 38779   0.0169 275.7675 0003881 152.4934 191.4745  1.00272908 24375
UTC
Height (km)
Latitude
Longitude
Inclination
Orbital Period
UTC large
Height (km)
Speed (km/s)
/
Latitude / Longitude
Inclination (degrees)
Orbital Period (minutes)
Azimuth
Elevation
Range (km)
Doppler Factor
iOS Compass Heading
iOS Angle

Next 30 passes for location: Hong Kong

Rise time Rise Azimuth (degrees) Set time Set Azimuth (degrees) Duration Max altitude (degrees)

No matching passes for this satellites